Orbital Elements at Epoch 2459000.5 (2020-May-31.0) TDB
Reference: JPL 17 (heliocentric ecliptic J2000)
Element | Value | Uncertainty (1-sigma) | Units |
e | .1289782898703798 | 4.5213e-08 | |
a | 3.11381156953234 | 3.053e-08 | au |
q | 2.712197478315455 | 1.3849e-07 | au |
i | 8.220873194230744 | 5.9473e-06 | deg |
node | 190.7511619316188 | 3.147e-05 | deg |
peri | 244.6018390909646 | 3.8393e-05 | deg |
M | 145.1338563219239 | 2.4257e-05 | deg |
tp | 2458191.398226728351 (2018-Mar-13.89822673) | 0.00013004 | TDB |
period | 2006.951691076877 5.49 | 2.9516e-05 8.081e-08 | d yr |
n | .1793765149408423 | 2.6381e-09 | deg/d |
Q | 3.515425660749224 | 3.4468e-08 | au |
|
| | Orbit Determination Parameters
Additional Information
|